TimePST,TemperatureF,Dew PointF,Humidity,Sea Level PressureIn,VisibilityMPH,Wind Direction,Wind SpeedMPH,Gust SpeedMPH,PrecipitationIn,Events,Conditions,WindDirDegrees,DateUTC
12:53 AM,15.1,12.9,91,30.15,5.0,North,4.6,-,N/A,,Clear,360,2013-01-24 08:53:00
1:02 AM,15.8,12.2,86,30.10,5.0,North,6.9,-,N/A,,Scattered Clouds,360,2013-01-24 09:02:00
1:11 AM,17.6,15.8,93,30.10,5.0,North,5.8,-,N/A,,Mostly Cloudy,360,2013-01-24 09:11:00
1:53 AM,21.0,18.0,88,30.17,6.0,North,6.9,-,N/A,,Overcast,350,2013-01-24 09:53:00
2:53 AM,23.0,21.0,92,30.20,5.0,North,9.2,-,N/A,,Overcast,10,2013-01-24 10:53:00
4:53 AM,24.1,21.9,91,30.24,5.0,North,6.9,-,N/A,,Overcast,10,2013-01-24 12:53:00
5:53 AM,25.0,21.9,88,30.25,5.0,North,6.9,-,N/A,,Overcast,10,2013-01-24 13:53:00
6:53 AM,25.0,21.9,88,30.27,6.0,North,8.1,-,N/A,,Overcast,10,2013-01-24 14:53:00
7:53 AM,25.0,23.0,92,30.29,5.0,NNE,8.1,-,N/A,,Overcast,20,2013-01-24 15:53:00
8:53 AM,26.1,23.0,88,30.31,5.0,North,8.1,-,N/A,,Overcast,10,2013-01-24 16:53:00
9:53 AM,26.1,23.0,88,30.32,5.0,North,8.1,-,N/A,,Overcast,10,2013-01-24 17:53:00
10:53 AM,26.1,23.0,88,30.32,6.0,NE,5.8,-,N/A,,Overcast,40,2013-01-24 18:53:00
11:53 AM,27.0,23.0,85,30.30,7.0,NNE,8.1,-,N/A,,Overcast,20,2013-01-24 19:53:00
12:53 PM,28.0,23.0,81,30.29,7.0,NNE,9.2,-,N/A,,Overcast,20,2013-01-24 20:53:00
1:53 PM,28.0,23.0,81,30.28,9.0,North,8.1,-,N/A,,Overcast,10,2013-01-24 21:53:00
2:53 PM,28.0,24.1,85,30.26,8.0,North,11.5,-,N/A,,Overcast,360,2013-01-24 22:53:00
3:53 PM,28.0,24.1,85,30.26,8.0,North,8.1,-,N/A,,Overcast,350,2013-01-24 23:53:00
4:53 PM,28.9,25.0,85,30.24,8.0,NNW,4.6,-,N/A,,Overcast,340,2013-01-25 00:53:00
5:29 PM,28.4,24.8,86,30.19,8.0,NW,6.9,-,N/A,,Overcast,320,2013-01-25 01:29:00
5:53 PM,28.9,26.1,89,30.24,8.0,NNW,4.6,-,N/A,,Overcast,330,2013-01-25 01:53:00
6:53 PM,28.9,25.0,85,30.24,8.0,NW,6.9,-,N/A,,Overcast,310,2013-01-25 02:53:00
7:53 PM,28.9,25.0,85,30.21,7.0,NNW,5.8,-,N/A,,Overcast,330,2013-01-25 03:53:00
8:53 PM,28.9,25.0,85,30.20,7.0,NW,9.2,-,N/A,,Overcast,310,2013-01-25 04:53:00
9:53 PM,28.9,25.0,85,30.20,7.0,NW,8.1,-,N/A,,Overcast,320,2013-01-25 05:53:00
10:53 PM,28.9,26.1,89,30.19,6.0,WNW,6.9,-,N/A,,Overcast,300,2013-01-25 06:53:00
11:45 PM,28.4,26.6,93,30.14,6.0,WNW,5.8,-,N/A,,Overcast,300,2013-01-25 07:45:00
11:53 PM,28.9,26.1,89,30.19,7.0,WNW,6.9,-,N/A,,Overcast,290,2013-01-25 07:53:00